(111131) = 2001 VT92

Discovered at Socorro on 2001-11-15 by LINEAR.

Orbit

Orbit type: Main Belt

Note: WebGL enabled browser required.

epoch2024-03-31.0
epoch JD2460400.5
perihelion date2022-09-07.10475
perihelion JD2459829.60475
argument of perihelion (°)303.32480
ascending node (°)105.24564
inclination (°)14.36339
eccentricity0.2288089
perihelion distance (AU)2.0006886
Tisserand w.r.t. Jupiter3.3
ΔV w.r.t. Earth (km/sec)9.9
semimajor axis (AU)2.5942838
mean anomaly (°)134.65859
mean daily motion (°/day)0.23587270
aphelion distance (AU)3.188
period (years)4.18
P-vector [x]0.63649954
P-vector [y]0.76405057
P-vector [z]0.10533316
Q-vector [x]-0.73320145
Q-vector [y]0.55702817
Q-vector [z]0.39004519
absolute magnitude14.85
phase slope0.15
uncertainty0
referenceMPEC 2024-F74
observations used1155
oppositions19
arc length (days)9551
first opposition used1998
last opposition used2024
residual rms (arc-secs)0.65
perturbers coarse indicatorM-v
perturbers precise indicator003Ek
first observation date used1998-01-26.0
last observation date used2024-03-21.0
computer nameMPCLINUX
JD of orbit computation2456966.819365
perihelion JD uncertainty (days)9.5290E-05
argument of perihelion uncertainty (°)3.2238E-05
ascending node uncertainty (°)2.6659E-05
inclination uncertainty (°)5.8422E-06
eccentricity uncertainty 6.7901E-08
perihelion distance uncertainty (AU)1.8567E-07
Minimum Orbit Intersection Distances (in AU)
for orbit epoch: 2460400.5, reference: E2024-GH2
Mercury1.69176
Venus1.29618
Earth1.0504
Mars0.54901
Jupiter2.265
Saturn6.69327
Uranus15.5879
Neptune27.4613

Observations

1170 total observations over interval: 1998 01 26.16207 – 2024 03 21.615133
These data are available for download (format description).

Date (UT) J2000 RA J2000 Dec Magn Location Ref
1998 01 26.16207 06 08 42.32 +23 54 39.7 18.9   704 – Lincoln Laboratory ETS, New Mexico MPS 141659
1998 01 26.18384 06 08 41.68 +23 54 49.8   704 – Lincoln Laboratory ETS, New Mexico MPS 141659
1998 01 26.20559 06 08 41.01 +23 55 00.9   704 – Lincoln Laboratory ETS, New Mexico MPS 141659
1998 01 26.22727 06 08 40.43 +23 55 10.4   704 – Lincoln Laboratory ETS, New Mexico MPS 141659
2001 08 23.44965 03 52 23.61 +02 45 12.2 18.1   644 – Palomar Mountain/NEAT MPS 44854
2001 08 23.46025 03 52 24.53 +02 45 12.1 17.8   644 – Palomar Mountain/NEAT MPS 44854
2001 08 23.47089 03 52 25.45 +02 45 12.0 17.6   644 – Palomar Mountain/NEAT MPS 44854
2001 09 14.48340 04 20 05.19 +02 18 32.2 17.8   644 – Palomar Mountain/NEAT MPS 44854
2001 09 14.49440 04 20 05.84 +02 18 30.6 17.7   644 – Palomar Mountain/NEAT MPS 44854
2001 09 14.50554 04 20 06.50 +02 18 29.2 17.7   644 – Palomar Mountain/NEAT MPS 44854
2001 11 12.33574 04 25 41.80 +00 37 29.5 17.1 R 699 – Lowell Observatory-LONEOS MPS 44854
2001 11 12.35936 04 25 40.52 +00 37 32.9   699 – Lowell Observatory-LONEOS MPS 44854
2001 11 12.38301 04 25 39.21 +00 37 36.4   699 – Lowell Observatory-LONEOS MPS 44854
2001 11 12.40673 04 25 37.96 +00 37 39.6   699 – Lowell Observatory-LONEOS MPS 44854
2001 11 15.30143 04 23 04.10 +00 45 33.5 16.8   704 – Lincoln Laboratory ETS, New Mexico MPS 42192
2001 11 15.31617 04 23 03.25 +00 45 36.5 16.7   704 – Lincoln Laboratory ETS, New Mexico MPS 42192
2001 11 15.33088 04 23 02.41 +00 45 39.2 16.9   704 – Lincoln Laboratory ETS, New Mexico MPS 42192
2001 11 15.34559 04 23 01.54 +00 45 41.9 17.4   704 – Lincoln Laboratory ETS, New Mexico MPS 42192
2001 11 15.36034 04 23 00.68 +00 45 44.4 17.9   704 – Lincoln Laboratory ETS, New Mexico MPS 42192
2001 11 18.29925 04 20 15.25 +00 56 11.5 17.0   704 – Lincoln Laboratory ETS, New Mexico MPS 42192
2001 11 18.31427 04 20 14.34 +00 56 14.9 17.2   704 – Lincoln Laboratory ETS, New Mexico MPS 42193
2001 11 18.32927 04 20 13.45 +00 56 18.6 17.2   704 – Lincoln Laboratory ETS, New Mexico MPS 42193
2001 11 18.34427 04 20 12.52 +00 56 22.0 17.4   704 – Lincoln Laboratory ETS, New Mexico MPS 42193
2001 11 18.35927 04 20 11.60 +00 56 25.4 17.9   704 – Lincoln Laboratory ETS, New Mexico MPS 42193
2001 11 20.30098 04 18 18.51 +01 04 42.1 17.0 R 699 – Lowell Observatory-LONEOS MPS 44854
2001 11 20.31748 04 18 17.48 +01 04 46.4   699 – Lowell Observatory-LONEOS MPS 44854
2001 11 20.33403 04 18 16.47 +01 04 51.1   699 – Lowell Observatory-LONEOS MPS 44854
2001 11 20.35057 04 18 15.41 +01 04 56.0   699 – Lowell Observatory-LONEOS MPS 44854
2001 12 05.45252 04 03 18.82 +02 45 34.5 18.9   608 – Haleakala-AMOS MPS 44854
2001 12 05.46324 04 03 18.18 +02 45 40.2 18.3   608 – Haleakala-AMOS MPS 44854
2001 12 05.47421 04 03 17.58 +02 45 45.1 19.6   608 – Haleakala-AMOS MPS 44854
2001 12 07.22461 04 01 41.27 +03 01 15.1 17.1   704 – Lincoln Laboratory ETS, New Mexico MPS 44854
2001 12 07.23976 04 01 40.40 +03 01 23.0 17.1   704 – Lincoln Laboratory ETS, New Mexico MPS 44854
2001 12 07.25557 04 01 39.51 +03 01 31.9 17.3   704 – Lincoln Laboratory ETS, New Mexico MPS 44854
2001 12 07.27092 04 01 38.61 +03 01 40.1 17.7   704 – Lincoln Laboratory ETS, New Mexico MPS 44854
2001 12 07.28572 04 01 37.87 +03 01 46.8 19.1   704 – Lincoln Laboratory ETS, New Mexico MPS 44854
2001 12 09.21416 03 59 55.21 +03 19 43.7 17.0   704 – Lincoln Laboratory ETS, New Mexico MPS 44854
2001 12 09.23054 03 59 54.30 +03 19 53.0 18.1   704 – Lincoln Laboratory ETS, New Mexico MPS 44854
2001 12 09.23070 03 59 54.30 +03 19 52.6 17.2   704 – Lincoln Laboratory ETS, New Mexico MPS 44854
2001 12 09.23475 03 59 54.12 +03 19 55.7 17.1 R 699 – Lowell Observatory-LONEOS MPS 44854
2001 12 09.24568 03 59 53.47 +03 20 00.9 18.3   704 – Lincoln Laboratory ETS, New Mexico MPS 44854
2001 12 09.24578 03 59 53.50 +03 20 01.2 18.7   704 – Lincoln Laboratory ETS, New Mexico MPS 44854
2001 12 09.25977 03 59 52.75 +03 20 09.8   699 – Lowell Observatory-LONEOS MPS 44854
2001 12 09.26065 03 59 52.68 +03 20 09.8 17.9   704 – Lincoln Laboratory ETS, New Mexico MPS 44854
2001 12 09.26085 03 59 52.65 +03 20 10.4 18.2   704 – Lincoln Laboratory ETS, New Mexico MPS 44854
2001 12 09.27562 03 59 51.85 +03 20 18.5 17.3   704 – Lincoln Laboratory ETS, New Mexico MPS 44854
2001 12 09.27653 03 59 51.79 +03 20 19.7 17.6   704 – Lincoln Laboratory ETS, New Mexico MPS 44854
2001 12 09.28483 03 59 51.37 +03 20 24.4   699 – Lowell Observatory-LONEOS MPS 44854
2001 12 09.29061 03 59 51.02 +03 20 27.1 16.9   704 – Lincoln Laboratory ETS, New Mexico MPS 44854
2001 12 09.30994 03 59 49.99 +03 20 38.6   699 – Lowell Observatory-LONEOS MPS 44854
2001 12 19.21906 03 52 27.14 +05 04 40.3 16.7   704 – Lincoln Laboratory ETS, New Mexico MPS 44854
2001 12 19.23405 03 52 26.56 +05 04 50.5 16.8   704 – Lincoln Laboratory ETS, New Mexico MPS 44855
2001 12 19.24902 03 52 25.99 +05 05 00.5 17.5   704 – Lincoln Laboratory ETS, New Mexico MPS 44855
2001 12 19.26415 03 52 25.41 +05 05 10.9 17.4   704 – Lincoln Laboratory ETS, New Mexico MPS 44855
2001 12 19.28027 03 52 24.78 +05 05 21.9 18.3   704 – Lincoln Laboratory ETS, New Mexico MPS 44855
2002 01 02.37061 03 47 12.41 +07 56 20.8 18.9   608 – Haleakala-AMOS MPS 44855
2002 01 02.38081 03 47 12.30 +07 56 28.7 18.2   608 – Haleakala-AMOS MPS 44855
2002 01 02.39129 03 47 12.21 +07 56 36.6 18.0   608 – Haleakala-AMOS MPS 44855
2002 01 03.72170 03 47 04.63 +08 13 29.1 17.6   106 – Crni Vrh MPS 44855
2002 01 03.74145 03 47 04.44 +08 13 44.3 18.1   106 – Crni Vrh MPS 44855
2002 01 03.76180 03 47 04.37 +08 13 59.1 17.3   106 – Crni Vrh MPS 44855
2002 01 05.20612 03 46 59.75 +08 32 26.6 17.5 R 699 – Lowell Observatory-LONEOS MPS 46700
2002 01 05.22962 03 46 59.68 +08 32 44.7   699 – Lowell Observatory-LONEOS MPS 46700
2002 01 05.25320 03 46 59.53 +08 33 02.8   699 – Lowell Observatory-LONEOS MPS 46700
2002 01 05.30027 03 46 59.39 +08 33 38.3   699 – Lowell Observatory-LONEOS MPS 46700
2002 01 09.11432 03 47 09.94 +09 22 36.4 17.8   644 – Palomar Mountain/NEAT MPS 46700
2002 01 09.13516 03 47 10.04 +09 22 52.6 18.1   644 – Palomar Mountain/NEAT MPS 46700
2002 01 09.15752 03 47 10.12 +09 23 09.9 20.7   644 – Palomar Mountain/NEAT MPS 46700
2002 01 10.16222 03 47 17.80 +09 36 05.1 17.2   704 – Lincoln Laboratory ETS, New Mexico MPS 46700
2002 01 10.17748 03 47 17.91 +09 36 17.2 18.0   704 – Lincoln Laboratory ETS, New Mexico MPS 46700
2002 01 10.19274 03 47 18.07 +09 36 30.2 19.5   704 – Lincoln Laboratory ETS, New Mexico MPS 46700
2002 01 10.20801 03 47 18.14 +09 36 39.9 19.3   704 – Lincoln Laboratory ETS, New Mexico MPS 46700
2002 01 10.22331 03 47 18.18 +09 36 52.9 17.9   704 – Lincoln Laboratory ETS, New Mexico MPS 46700
2002 01 13.24245 03 47 55.16 +10 15 50.3 18.8   608 – Haleakala-AMOS MPS 46700
2002 01 13.25326 03 47 55.29 +10 15 58.3 18.7   608 – Haleakala-AMOS MPS 46700
2002 01 13.26383 03 47 55.41 +10 16 06.5 18.6   608 – Haleakala-AMOS MPS 46700
2002 01 14.15102 03 48 09.62 +10 27 30.2 18.0   704 – Lincoln Laboratory ETS, New Mexico MPS 55143
2002 01 14.16663 03 48 09.88 +10 27 42.5 17.9   704 – Lincoln Laboratory ETS, New Mexico MPS 55143
2002 01 14.18413 03 48 10.13 +10 27 55.9 17.6   704 – Lincoln Laboratory ETS, New Mexico MPS 55143
2002 01 14.20046 03 48 10.39 +10 28 08.6 18.3   704 – Lincoln Laboratory ETS, New Mexico MPS 55143
2002 01 14.21687 03 48 10.60 +10 28 21.4 18.9   704 – Lincoln Laboratory ETS, New Mexico MPS 55143
2003 03 09.36186 13 33 08.41 +12 16 39.1 18.9 R 699 – Lowell Observatory-LONEOS MPS 76044
2003 03 09.36269 13 33 08.32 +12 16 39.0 18.7 R 699 – Lowell Observatory-LONEOS MPS 76044
2003 03 09.37513 13 33 07.94 +12 16 45.9   699 – Lowell Observatory-LONEOS MPS 76044
2003 03 09.37598 13 33 07.80 +12 16 45.8   699 – Lowell Observatory-LONEOS MPS 76044
2003 03 09.38842 13 33 07.51 +12 16 52.3   699 – Lowell Observatory-LONEOS MPS 76044
2003 03 09.38924 13 33 07.41 +12 16 52.1   699 – Lowell Observatory-LONEOS MPS 76044
2003 03 09.40167 13 33 07.04 +12 16 58.4   699 – Lowell Observatory-LONEOS MPS 76044
2003 03 09.40251 13 33 06.99 +12 16 58.6   699 – Lowell Observatory-LONEOS MPS 76044
